Overview Statistics Trail Chart Weather Telemetry Raw packets
 

This is the latest recevied weather packets stored in our database for station/object W5ITZ. If no packets are shown the sender has not sent any weather packets the latest 10 day(s).

<< 72 73 74 75 76 77 78 >>
Time Temp. Humidity Pressure Rain* Wind** Luminosity Snow
1787709415 27.78° C 79% 1015.6 hPa 0 mm - 0 W/m² -
1787709111 28.33° C 78% 1015.4 hPa 0 mm - 0 W/m² -
1787708808 28.33° C 78% 1015.4 hPa 0 mm - 0 W/m² -
1787708506 28.89° C 77% 1015.1 hPa 0 mm - 0 W/m² -
1787708202 28.89° C 76% 1015.1 hPa 0 mm - 0 W/m² -
1787707897 28.89° C 74% 1014.9 hPa 0 mm - 0 W/m² -
1787707592 28.89° C 73% 1015 hPa 0 mm - 0 W/m² -
1787707287 29.44° C 72% 1014.9 hPa 0 mm - 0 W/m² -
1787706983 29.44° C 72% 1014.9 hPa 0 mm - 0 W/m² -
1787706682 29.44° C 71% 1014.9 hPa 0 mm - 0 W/m² -
1787706379 29.44° C 71% 1014.9 hPa 0 mm - 1 W/m² -
1787706074 30° C 70% 1015 hPa 0 mm - 2 W/m² -
1787705768 30° C 68% 1015.1 hPa 0 mm - 4 W/m² -
1787705464 30.56° C 67% 1015 hPa 0 mm - 7 W/m² -
1787705160 30.56° C 66% 1014.7 hPa 0 mm - 11 W/m² -
1787704860 30.56° C 65% 1014.5 hPa 0 mm - 16 W/m² -
1787704555 30.56° C 64% 1014.8 hPa 0 mm - 20 W/m² -
1787704251 31.11° C 63% 1014.6 hPa 0 mm - 27 W/m² -
1787703950 31.11° C 62% 1014.7 hPa 0 mm - 32 W/m² -
1787703646 31.67° C 60% 1014.7 hPa 0 mm - 39 W/m² -
1787703341 31.67° C 59% 1014.8 hPa 0 mm - 45 W/m² -
1787703036 31.67° C 57% 1014.9 hPa 0 mm - 53 W/m² -
1787702731 32.22° C 57% 1014.9 hPa 0 mm - 61 W/m² -
1787702427 32.78° C 55% 1014.7 hPa 0 mm - 70 W/m² -
1787702121 32.78° C 52% 1014.5 hPa 0 mm - 80 W/m² -

* Rain latest hour (hover to see other rain measurements)
** Current wind speed in m/s (hover to see current wind gust speed)